"Pseudo-MPEC" for ZTB6331

Created 2018 Oct 12 22:18:22 UT using Find_Orb

Click here for an explanation of pseudo-MPECs

 
 Astrometry: 
     ZTB6331  C2018 10 05QBAstrometry[_$(-q'dQTT2s.^vIr%:+S%I?2#1cymH#u0N#t%1F52
     ZTB6331  C2018 10 05(k^6*Z9V:TaafeRBl;A_x4NL7+*Q:t5O4kiBS+]sKLm0g5o_3)g:F52
     ZTB6331  C2018 10 05uiyQMPlHeA\W0$doa]@%/4iQ#^j6BX*qG*uZHwiY1S7u#R2C2v1!F52
     ZTB6331  C2018 10 10.25218 01 14 21.87 +24 28 07.4          20.1 GVNEOCPG96
     ZTB6331  C2018 10 10.25788 01 14 20.72 +24 28 23.2          20.3 GVNEOCPG96
     ZTB6331  C2018 10 10.26928 01 14 18.34 +24 28 55.9          21.6 GVNEOCPG96
     ZTB6331  C2018 10 10.50219 01 13 30.70 +24 39 41.4                VNEOCPI52
     ZTB6331  C2018 10 10.50594 01 13 29.95 +24 39 51.5                VNEOCPI52
     ZTB6331  C2018 10 11Mh:qY\Oc-Qm/L(2#\U6m/MBf%Tc7*umW=-OvCX`P/-95iK8K[NDUH01
     ZTB6331  C2018 10 11:0[osLyH?1fL:boLHredacted;y\0mqyrdKS8Cwn^-)-[/`)OKoUH01
     ZTB6331  C2018 10 11e2%l4XNDKyDxcI+Vl)$Pja]%pD/EoXU5jZ[Yl/#b!pJ!\q^:GO!_H01
     ZTB6331  C2018 10 11.q]=q,Put`VSR?WJ(2t.]vD.Z^Uc_nr0Qi[8?a3:!jG.c$2k7-SNH01
     ZTB6331 KC2018 10 11)w\=5k[N`-9kPt)J\q];ek$D$p5e#=HUyejD?^aX*l,3h*Zyyq$CL01
     ZTB6331 KC2018 10 11ON2:QOb,((QM\Jex\ojh),Wg@]gs.E=8seesO,JYI1a+b4A2T?nIL01
     ZTB6331 IC2018 10 11/6,omNi*ocm:Z_3/k7Bn*yru*L:xv$5(s\0=A%4?`M,Ixlgv@?n;L01
     ZTB6331 KC2018 10 12IuVq4kS-'d$HC*6cjcIn\G`I6iu^_DY;*OE^6M;uEyfbDO28e3R4H21
     ZTB6331 KC2018 10 125hX0L=/,2c6;/N+6PF1PQ8D'$\Fl45[VmF(dU4Pr%k[Svq^w]4w4H21
     ZTB6331 KC2018 10 12Ao_WQEQf!x2]bAL8:Q]u^YmBVP0-k(4P9P[^[G9YZQuU#goNEOCPH21

Station data:
(F52) Pan-STARRS 2, Haleakala  (N20.707384 W156.255910)  US/Hawaii.
(G96) Mt. Lemmon Survey  (N32.442754 W110.788720)  US/Arizona.  Observers B.
   M. Africano, E. J. Christensen, D. C. Fuls, A. R. Gibbs, A. D. Grauer, J.
   A. Johnson, R. A. Kowalski, S. M. Larson, G. J. Leonard, R. L. Seaman, F.
   C. Shelly. 1.5-m reflector + 10K CCD.
(H01) Magdalena Ridge Observatory, Socorro  (N33.984833 W107.189333)  US/New
   Mexico.  Observers W. H. Ryan, E. V. Ryan. Measurer W. H. Ryan. 2.4-m
   f/8.9 reflector + CCD.
(H21) Astronomical Research Observatory, Westfield  (N39.483057 W87.968270)
   US/Illinois. 0.76-m f/3.0 astrograph + CCD.
(I52) Steward Observatory, Mt. Lemmon Station  (N32.442547 W110.788920)
   US/Arizona.  Observers B. M. Africano, E. J. Christensen, D. C. Fuls, A.
   R. Gibbs, A. D. Grauer, J. A. Johnson, R. A. Kowalski, S. M. Larson, G. J.
   Leonard, R. L. Seaman, F. C. Shelly. 1.0-m reflector + CCD.
(L01) Višnjan Observatory, Tičan  (N45.290900 E13.749300)  Croatia.  Observer
   K. Korlević. 1.0-m f/2.9 reflector + CCD.

Orbital elements:  ZTB6331
   Perihelion 2018 Dec 28.117020 +/- 0.063 TT =  2:48:30 (JD 2458480.617020)
Epoch 2018 Oct 12.0 TT = JDT 2458403.5   Earth MOID: 0.0506   Ve: 0.0435
M 316.39117 +/- 0.21                Ma: 0.0487                AutoNEOCP
n   0.56548900 +/- 0.00239          Peri.  120.64302 +/- 0.043
a   1.44828247 +/- 0.00409          Node     0.16639 +/- 0.039
e   0.4949413 +/- 0.00187           Incl.    9.10034 +/- 0.043
P   1.74/636.61d           H 22.9   G  0.15   U  8.7  
q 0.73146753 +/- 0.000645    Q 2.16509740 +/- 0.00886
From 18 observations 2018 Oct. 5-12; mean residual 0".20
Residuals in arcseconds: 
181005 F52  .03+  .03+    181010 I52  .07+  .15-    181011 L01  .11+  .34+    
181005 F52  .02+  .07-    181010 I52  .04+  .35-    181011 L01  .56+  .44-    
181005 F52  .01+  .07+    181011 H01  .07+  .05-    181011 L01  .27-  .23-    
181010 G96  .09-  .13+    181011 H01  .01+  .02+    181012 H21  .06+  .04+    
181010 G96  .14+  .15-    181011 H01  .04+  .02+    181012 H21  .07-  .19+    
181010 G96  .45-  .44+    181011 H01  .02-  .05+    181012 H21  .14-  .01+    

Ephemerides (geocentric):
Date (UTC) HH   RA              Dec         delta   r     elong  mag " sig PA
---- -- -- --  -------------   -----------  ------ ------ -----  --- ---- ---
2018 10 12 22  01 04 53.027   +26 40 42.14  .21123 1.1994 160.8 20.8  .24  65
2018 10 12 23  01 04 43.106   +26 42 54.90  .21092 1.1991 160.8 20.8  .24  64
2018 10 13 00  01 04 33.151   +26 45 07.93  .21062 1.1987 160.8 20.8  .25  63
2018 10 13 01  01 04 23.161   +26 47 21.24  .21031 1.1984 160.7 20.8  .26  63
2018 10 13 02  01 04 13.136   +26 49 34.82  .21000 1.1981 160.7 20.8  .27  62
2018 10 13 03  01 04 03.077   +26 51 48.67  .20970 1.1977 160.7 20.8  .27  62
2018 10 13 04  01 03 52.981   +26 54 02.80  .20940 1.1974 160.6 20.8  .28  61
2018 10 13 05  01 03 42.851   +26 56 17.20  .20909 1.1971 160.6 20.8  .29  61
2018 10 13 06  01 03 32.685   +26 58 31.87  .20879 1.1967 160.6 20.8  .30  60
2018 10 13 07  01 03 22.484   +27 00 46.82  .20848 1.1964 160.5 20.7  .31  60
2018 10 13 08  01 03 12.246   +27 03 02.05  .20818 1.1961 160.5 20.7  .31  60
2018 10 13 09  01 03 01.973   +27 05 17.55  .20788 1.1957 160.5 20.7  .32  59
2018 10 13 10  01 02 51.664   +27 07 33.34  .20758 1.1954 160.5 20.7  .33  59
2018 10 13 11  01 02 41.318   +27 09 49.39  .20727 1.1951 160.4 20.7  .34  58
2018 10 13 12  01 02 30.936   +27 12 05.73  .20697 1.1947 160.4 20.7  .35  58
2018 10 13 13  01 02 20.518   +27 14 22.35  .20667 1.1944 160.4 20.7  .36  58
2018 10 13 14  01 02 10.063   +27 16 39.24  .20637 1.1941 160.3 20.7  .37  57
2018 10 13 15  01 01 59.571   +27 18 56.41  .20607 1.1937 160.3 20.7  .37  57
2018 10 13 16  01 01 49.043   +27 21 13.87  .20577 1.1934 160.3 20.7  .38  57
2018 10 13 17  01 01 38.477   +27 23 31.60  .20547 1.1931 160.2 20.7  .39  56
2018 10 13 18  01 01 27.874   +27 25 49.62  .20517 1.1927 160.2 20.7  .40  56
2018 10 13 19  01 01 17.234   +27 28 07.92  .20487 1.1924 160.2 20.7  .41  56
2018 10 13 20  01 01 06.556   +27 30 26.50  .20457 1.1921 160.1 20.7  .42  55
2018 10 13 21  01 00 55.841   +27 32 45.36  .20427 1.1917 160.1 20.7  .43  55
2018 10 13 22  01 00 45.088   +27 35 04.50  .20397 1.1914 160.1 20.7  .44  55
2018 10 13 23  01 00 34.297   +27 37 23.93  .20367 1.1911 160.0 20.7  .45  55
2018 10 14 00  01 00 23.467   +27 39 43.64  .20338 1.1907 160.0 20.7  .46  54
2018 10 14 01  01 00 12.600   +27 42 03.64  .20308 1.1904 159.9 20.7  .47  54
2018 10 14 02  01 00 01.694   +27 44 23.92  .20278 1.1901 159.9 20.7  .48  54
2018 10 14 03  00 59 50.749   +27 46 44.49  .20248 1.1897 159.9 20.7  .49  53
2018 10 14 04  00 59 39.766   +27 49 05.34  .20219 1.1894 159.8 20.7  .50  53
2018 10 14 05  00 59 28.744   +27 51 26.48  .20189 1.1891 159.8 20.7  .51  53
2018 10 14 06  00 59 17.683   +27 53 47.91  .20160 1.1887 159.8 20.7  .52  53
2018 10 14 07  00 59 06.582   +27 56 09.62  .20130 1.1884 159.7 20.7  .53  52
2018 10 14 08  00 58 55.443   +27 58 31.62  .20100 1.1880 159.7 20.7  .54  52
2018 10 14 09  00 58 44.263   +28 00 53.91  .20071 1.1877 159.6 20.7  .55  52
2018 10 14 10  00 58 33.045   +28 03 16.49  .20042 1.1874 159.6 20.7  .56  52
2018 10 14 11  00 58 21.786   +28 05 39.35  .20012 1.1870 159.6 20.7  .57  52
2018 10 14 12  00 58 10.487   +28 08 02.51  .19983 1.1867 159.5 20.7  .58  51
2018 10 14 13  00 57 59.148   +28 10 25.95  .19953 1.1864 159.5 20.7  .59  51
2018 10 14 14  00 57 47.769   +28 12 49.69  .19924 1.1860 159.4 20.7  .60  51
2018 10 14 15  00 57 36.349   +28 15 13.72  .19895 1.1857 159.4 20.7  .61  51
2018 10 14 16  00 57 24.888   +28 17 38.03  .19865 1.1854 159.3 20.7  .62  50
2018 10 14 17  00 57 13.387   +28 20 02.64  .19836 1.1850 159.3 20.7  .63  50
2018 10 14 18  00 57 01.845   +28 22 27.54  .19807 1.1847 159.3 20.7  .64  50
2018 10 14 19  00 56 50.262   +28 24 52.74  .19778 1.1844 159.2 20.7  .65  50
2018 10 14 20  00 56 38.637   +28 27 18.22  .19749 1.1840 159.2 20.7  .66  50
2018 10 14 21  00 56 26.970   +28 29 44.00  .19720 1.1837 159.1 20.7  .67  49